Weather History for Lawrence, MA

Change the Weather History Date:

Tuesday, June 11, 2013

  Actual Average Record
Temperature  
Mean Temperature 58 °F -  
Max Temperature 62 °F 77 °F 93 °F (1984)
Min Temperature 55 °F 54 °F 40 °F (1960)
Degree Days  
Heating Degree Days 7    
Growing Degree Days 8 (Base 50)    
Moisture  
Dew Point 54 °F    
Average Humidity 87    
Maximum Humidity 94    
Minimum Humidity 77    
Precipitation  
Precipitation 0.97 in - - ()
Sea Level Pressure  
Sea Level Pressure 29.74 in    
Wind  
Wind Speed 7 mph (NE)    
Max Wind Speed 14 mph    
Max Gust Speed 23 mph    
Visibility 6 miles    
Events Rain    
Averages and records for this station are not official NWS values.
T = Trace of Precipitation, MM = Missing Value Source: NWS Daily Summary

Daily Weather History Graph

Daily Weather History Graph

Search for Another Location

Airport:

Trip Planner

Search our weather history database for the weather conditions in past years. The results will help you decide how hot, cold, wet, or windy it might be!

Date:

Astronomy

Jun. 11, 2013 Rise Set
Actual Time 5:05 AM EDT 8:22 PM EDT
Civil Twilight 4:31 AM EDT 8:57 PM EDT
Nautical Twilight 3:45 AM EDT 9:42 PM EDT
Astronomical Twilight 2:50 AM EDT 10:38 PM EDT
Moon 7:49 AM EDT (6/11) 10:20 PM EDT (6/11)
Length of Visible Light 16h 26m
Length of Day
15h 16m
Waxing Crescent, 8% of the Moon is Illuminated
Jun 11
Waxing Crescent
Jun 16
First Quarter
Jun 23
Full
Jun 30
Last Quarter
Jul 8
New

Hourly Weather History & Observations

Time (EDT) Temp. Dew Point Humidity Pressure Visibility Wind Dir Wind Speed Gust Speed Precip Events Conditions
12:31 AM 59.0 °F 55.4 °F 88% 30.04 in 6.0 mi East 6.9 mph - 0.08 in Rain Light Rain
12:42 AM 59.0 °F 55.4 °F 88% 30.03 in 6.0 mi East 8.1 mph - 0.09 in Rain Light Rain
12:54 AM 59.0 °F 55.0 °F 87% 30.02 in 8.0 mi East 8.1 mph - 0.10 in Rain Light Rain
1:54 AM 59.0 °F 55.0 °F 87% 29.98 in 9.0 mi East 8.1 mph - 0.02 in Rain Light Rain
2:54 AM 57.9 °F 54.0 °F 87% 29.94 in 10.0 mi East 9.2 mph 18.4 mph 0.08 in Rain Light Rain
3:54 AM 57.0 °F 54.0 °F 89% 29.91 in 4.0 mi East 12.7 mph 18.4 mph 0.13 in Rain Rain
4:54 AM 57.0 °F 53.1 °F 87% 29.88 in 5.0 mi East 8.1 mph 19.6 mph 0.10 in Rain Rain
5:54 AM 55.9 °F 53.1 °F 90% 29.85 in 7.0 mi ENE 10.4 mph - 0.06 in Rain Light Rain
6:33 AM 55.4 °F 53.6 °F 94% 29.83 in 2.5 mi ENE 11.5 mph 18.4 mph 0.04 in Rain Light Rain
6:40 AM 55.4 °F 53.6 °F 94% 29.83 in 5.0 mi ENE 13.8 mph - 0.04 in Rain Light Rain
6:54 AM 55.9 °F 53.1 °F 90% 29.81 in 1.8 mi NE 11.5 mph 23.0 mph 0.07 in Rain Light Rain
7:02 AM 55.4 °F 53.6 °F 94% 29.82 in 3.0 mi NE 9.2 mph 18.4 mph 0.01 in Rain Light Rain
7:12 AM 55.4 °F 53.6 °F 94% 29.81 in 2.0 mi NE 10.4 mph - 0.03 in Rain Rain
7:47 AM 55.4 °F 53.6 °F 94% 29.78 in 6.0 mi NE 12.7 mph - 0.05 in Rain Light Rain
7:54 AM 55.9 °F 53.1 °F 90% 29.78 in 7.0 mi ENE 12.7 mph 20.7 mph 0.06 in Rain Light Rain
8:54 AM 55.9 °F 53.1 °F 90% 29.76 in 5.0 mi NE 12.7 mph - 0.02 in   Overcast
9:54 AM 57.0 °F 54.0 °F 89% 29.73 in 6.0 mi NE 10.4 mph - N/A   Overcast
10:54 AM 59.0 °F 55.0 °F 87% 29.73 in 4.0 mi North 5.8 mph - N/A   Overcast
11:54 AM 59.0 °F 55.0 °F 87% 29.73 in 9.0 mi North 8.1 mph - N/A   Overcast
12:54 PM 59.0 °F 55.0 °F 87% 29.72 in 9.0 mi North 6.9 mph - N/A   Overcast
1:54 PM 60.1 °F 55.0 °F 83% 29.71 in 10.0 mi North 4.6 mph - N/A   Overcast
2:51 PM 60.8 °F 53.6 °F 77% 29.69 in 10.0 mi NNW 6.9 mph - N/A   Overcast
2:54 PM 61.0 °F 54.0 °F 78% 29.70 in 10.0 mi North 5.8 mph - N/A   Overcast
3:54 PM 61.0 °F 54.0 °F 78% 29.68 in 10.0 mi NNW 3.5 mph - N/A   Overcast
4:54 PM 61.0 °F 54.0 °F 78% 29.65 in 10.0 mi NNE 6.9 mph - N/A   Overcast
5:33 PM 60.8 °F 53.6 °F 77% 29.64 in 10.0 mi ENE 5.8 mph - N/A   Overcast
5:54 PM 61.0 °F 54.0 °F 78% 29.63 in 10.0 mi NE 6.9 mph - N/A   Overcast
6:49 PM 59.0 °F 53.6 °F 82% 29.61 in 6.0 mi NE 9.2 mph - 0.01 in Rain Rain
6:54 PM 59.0 °F 54.0 °F 83% 29.61 in 5.0 mi ENE 6.9 mph - 0.02 in Rain Rain
7:28 PM 57.2 °F 53.6 °F 88% 29.62 in 3.0 mi ENE 4.6 mph - 0.12 in Rain Heavy Rain
7:35 PM 57.2 °F 53.6 °F 88% 29.62 in 2.5 mi Calm Calm - 0.14 in Rain Rain
7:54 PM 57.0 °F 54.0 °F 89% 29.61 in 2.0 mi ENE 5.8 mph - 0.25 in Rain Rain
8:30 PM 57.2 °F 53.6 °F 88% 29.61 in 2.0 mi Calm Calm - 0.05 in   Overcast
8:44 PM 57.2 °F 53.6 °F 88% 29.61 in 10.0 mi Calm Calm - 0.05 in   Overcast
8:54 PM 57.0 °F 53.1 °F 87% 29.62 in 8.0 mi Calm Calm - 0.05 in Rain Light Rain
9:54 PM 57.0 °F 53.1 °F 87% 29.63 in 10.0 mi Calm Calm - 0.00 in   Overcast
10:05 PM 57.2 °F 53.6 °F 88% 29.63 in 10.0 mi Calm Calm - N/A   Overcast
10:15 PM 57.2 °F 53.6 °F 88% 29.62 in 5.0 mi Calm Calm - N/A   Overcast
10:36 PM 57.2 °F 53.6 °F 88% 29.62 in 2.5 mi Calm Calm - 0.01 in   Overcast
10:51 PM 57.2 °F 53.6 °F 88% 29.61 in 5.0 mi Calm Calm - 0.01 in   Overcast
10:54 PM 57.0 °F 54.0 °F 89% 29.61 in 6.0 mi Calm Calm - 0.01 in   Overcast
11:54 PM 57.0 °F 54.0 °F 89% 29.60 in 10.0 mi Calm Calm - N/A   Overcast